#timestamp,LO_Frequency,Hit,StdDev 
1605880815.6,286046997.9,N
1605880835.4,286046997.1,N
1605880855.3,286046996.5,N
1605880875.1,286046997.0,N
1605880895.9,286046994.9,N
1605880915.7,286046995.0,N
1605880935.5,286046993.4,Y
1605880955.4,286046998.7,P
1605880975.2,286046998.9,N
1605880995.0,286047001.0,N
1605880995.9,286047001.0,N
1605881015.8,286047000.6,N
1605881035.6,286047000.6,N
1605881055.5,286047002.7,N
1605881075.3,286047002.7,N
1605881095.1,286047002.7,N
1605881115.9,286047002.5,N
1605881135.7,286047001.3,N
1605881155.5,286047001.9,N
1605881175.4,286047003.2,N
1605881195.2,286047003.4,N
1605881215.1,286047004.2,N
1605881216.0,286047004.2,N
1605881235.8,286047003.5,N
1605881255.6,286047003.7,N
1605881275.5,286047003.5,N
1605881295.3,286047005.7,N
1605881315.1,286047005.6,N
1605881335.9,286047005.7,N
1605881355.7,286047003.4,N
1605881375.6,286047005.7,N
1605881395.4,286047004.8,N
1605881415.2,286047007.2,Y
1605881435.1,286047004.1,P
1605881436.0,286047004.1,P
1605881455.8,286047004.1,P
1605881505.7,286047004.1,E
1605881515.6,286046999.7,N
1605881535.4,286046998.7,P
1605881555.3,286046998.2,P
1605881575.1,286046998.2,N
1605881595.8,286047001.0,N
1605881615.7,286047000.0,N
1605881635.5,286047002.1,N
1605881655.4,286047002.0,N
1605881675.2,286047002.6,N
1605881695.0,286047001.6,N
1605881695.9,286047001.6,N
1605881715.8,286047002.2,N
1605881735.6,286047002.0,N
1605881755.4,286047002.2,N
1605881775.3,286047001.5,N
1605881795.1,286047001.6,N
1605881815.9,286047001.8,N
1605881835.7,286047001.7,N
1605881855.5,286047003.5,N
1605881875.4,286047005.4,Y
1605881895.2,286047001.4,P
1605881915.0,286047001.5,P
1605881915.9,286047001.5,P
1605881935.8,286047002.5,Y
1605881955.6,286047000.2,P
1605881975.5,286047000.8,N
1605881995.3,286046998.5,P
1605882015.1,286046998.8,N
1605882035.9,286046999.4,N
1605882055.7,286046998.8,N
1605882075.5,286046998.5,N
1605882095.4,286047001.2,N
1605882115.2,286047001.2,N
1605882135.1,286047000.8,N
1605882136.0,286047000.8,N
1605882155.8,286046998.9,N
1605882175.6,286047000.6,N
1605882195.5,286046998.1,N
1605882215.3,286046998.2,N
1605882235.1,286046998.7,N
1605882255.9,286046998.7,N
1605882275.7,286046998.6,N
1605882295.6,286046998.1,N
1605882315.4,286046998.5,N
1605882335.2,286046998.7,N
1605882355.1,286046998.4,N
1605882356.0,286046998.4,N
1605882375.8,286047000.6,N
1605882395.6,286047002.8,N
1605882415.5,286047002.1,N
1605882435.3,286046999.7,N
1605882455.2,286047000.2,N
1605882475.9,286047002.0,N
1605882495.7,286047002.2,N
1605882515.6,286047001.6,N
1605882535.4,286047004.4,Y
1605882555.2,286047004.4,P
1605882575.1,286047003.6,N
1605882576.0,286047003.6,N
1605882595.8,286047003.2,N
1605882615.7,286047003.2,N
1605882635.5,286047003.1,N
1605882655.3,286047003.0,N
1605882675.2,286047004.8,Y
1605882695.0,286047001.8,P
1605882695.9,286047001.8,N
1605882715.7,286047001.5,N
1605882735.6,286047001.8,Y
1605882755.4,286047001.0,P
1605882775.3,286046998.4,P
1605882795.1,286046998.9,N
1605882815.8,286046998.3,N
1605882835.7,286046998.7,N
1605882855.5,286046998.5,N
1605882875.3,286046999.0,N
1605882895.2,286047000.9,N
1605882915.0,286047000.6,N
1605882915.9,286047000.6,N
1605882935.8,286047000.3,N
1605882955.6,286047002.4,N
1605882975.4,286046999.8,N
1605882995.3,286047002.3,N
1605883015.1,286047000.1,N
1605883035.8,286047000.1,N
1605883055.7,286047001.5,N
1605883075.5,286047001.6,N
1605883095.4,286047001.3,N
1605883115.2,286047002.3,N
1605883135.0,286047002.0,N
1605883135.9,286047002.0,N
1605883155.8,286047002.5,N
1605883175.6,286047000.1,N
1605883195.4,286047000.7,N
1605883215.3,286047000.6,N
1605883235.1,286047000.2,N
1605883255.9,286047000.4,N
1605883275.7,286047000.3,N
1605883295.5,286046999.7,N
1605883315.4,286047004.0,Y
1605883335.2,286047002.1,P
1605883355.0,286047000.8,N
1605883355.9,286047000.8,N
1605883375.8,286047001.0,N
1605883395.6,286047000.3,N
1605883415.5,286046998.5,N
1605883435.3,286046998.4,N
1605883455.1,286046998.6,N
1605883475.9,286046998.5,N
1605883495.7,286046998.1,N
1605883515.5,286047000.0,N
1605883535.4,286047000.8,N
1605883555.2,286046998.4,N
1605883575.1,286047001.1,N
1605883576.0,286047001.1,N
1605883595.8,286046998.5,N
1605883615.6,286046998.8,N
1605883635.5,286046998.3,N
1605883655.3,286046998.5,N
1605883675.1,286047001.0,N
1605883695.9,286047000.8,N
1605883715.7,286047000.9,N
1605883735.6,286047002.4,N
1605883755.4,286047000.2,N
1605883775.2,286047000.2,N
1605883795.1,286046999.8,N
1605883796.0,286046999.8,N
1605883815.8,286047000.7,N
1605883835.6,286046999.9,N
1605883855.5,286047002.0,N
1605883875.3,286047002.2,N
1605883895.2,286047000.2,N
1605883915.9,286047001.1,N
1605883935.7,286047002.1,N
1605883955.6,286046999.7,N
1605883975.4,286047003.8,N
1605883995.2,286047001.3,N
1605884015.1,286047002.6,N
1605884016.0,286047002.6,N
1605884035.8,286047000.3,N
1605884055.7,286047000.5,N
1605884075.5,286047000.4,N
1605884095.3,286047000.5,N
1605884115.2,286047002.6,N
1605884135.0,286046999.7,N
1605884135.9,286046999.7,N
1605884155.7,286046999.8,N
1605884175.6,286047000.4,N
1605884195.4,286047002.4,N
1605884215.3,286047002.8,N
1605884235.1,286047002.5,N
1605884236.0,286047002.5,N
1605884255.8,286047002.0,N
1605884275.7,286047001.3,N
1605884295.5,286047004.3,Y
1605884315.4,286047000.1,P
1605884335.2,286047001.0,N
1605884355.0,286046999.7,N
1605884355.9,286046999.7,N
1605884375.8,286047000.3,N
1605884395.6,286047000.9,N
